Flag Weather past 2 weeks in Ashgabat, Turkmenistan

Now
50 °F

Passing clouds.


Feels Like: 50 °F
Forecast: 42 / 53 °F
Wind: 1 mph from North

Location: Ashgabat

Current Time: Nov 24, 2014 at 3:44:48 AM

Latest Report: Nov 24, 2014 at 3:00 AM


Visibility: N/A

Pressure: 30.07 "Hg

Humidity: 88%

Dew point: 46 °F

Location of AshgabatLocation

Historic Weather in Ashgabat — Graph

°F

Ashgabat temperature yesterday

Maximum temperature yesterday: 57 °F (at 2:00 PM)
Minimum temperature yesterday: 39 °F (at 5:00 AM)
Average temperature yesterday: 48 °F

Past Weeks' High & Low Weather Summary

 TemperatureHumidityPressure
High70 °F (Nov 16, 4:00 PM)100% (Nov 9, 4:00 AM)30.48 "Hg (Nov 9, 4:00 AM)
Low34 °F (Nov 14, 4:30 AM)29% (Nov 16, 4:00 PM)29.71 "Hg (Nov 23, 5:00 AM)
Average45 °F77%30.27 "Hg
* Reported Nov 9 2:00 AM — Nov 24 2:00 AM, Ashgabat, Weather by CustomWeather, © 2014

Note: Actual official high and low records may vary slightly from our data, if they occured in-between our weather recording intervals... More about our weather records

Advertising

Ashgabat weather history for previous 24 hours

 ConditionsComfort  
Time TempWeatherWind HumidityBarometerVisibility
2:00 AM
Nov 24
50 °FOvercast.1 mph88%30.04 "HgN/A
1:00 AM50 °FOvercast.3 mph88%30.04 "HgN/A
12:00 AM52 °FOvercast.3 mph82%30.01 "HgN/A
11:00 PM
Nov 23
52 °FPartly cloudy.6 mph88%30.01 "HgN/A
10:00 PM52 °FMostly cloudy.1 mph88%29.98 "Hg6 mi
9:00 PM52 °FSprinkles. Overcast.3 mph88%29.98 "Hg4 mi
8:00 PM52 °FSprinkles. Overcast.3 mph88%29.95 "Hg5 mi
7:00 PM54 °FOvercast.6 mph77%29.95 "Hg6 mi
6:00 PM54 °FSprinkles. Mostly cloudy.3 mph77%29.89 "HgN/A
5:00 PM54 °FBroken clouds.8 mph72%29.86 "HgN/A
4:00 PM55 °FScattered clouds.10 mph67%29.83 "HgN/A
3:00 PM57 °FScattered clouds.10 mph63%29.83 "HgN/A
2:00 PM57 °FScattered clouds.10 mph63%29.83 "HgN/A
1:00 PM55 °FPassing clouds.13 mph67%29.83 "HgN/A
12:00 PM55 °FScattered clouds.15 mph63%29.83 "HgN/A
11:00 AM50 °FBroken clouds.15 mph76%29.83 "HgN/A
10:00 AM46 °FBroken clouds.8 mph87%29.77 "HgN/A
9:00 AM43 °FBroken clouds.8 mph87%29.77 "Hg5 mi
8:00 AM39 °FPassing clouds.1 mph93%29.74 "Hg4 mi
7:00 AM39 °FClear.1 mph93%29.71 "Hg4 mi
6:00 AM39 °FClear.No wind93%29.71 "Hg4 mi
5:00 AM39 °FClear.3 mph93%29.71 "Hg4 mi
4:00 AM41 °FClear.No wind87%29.74 "Hg5 mi
3:00 AM41 °FClear.3 mph93%29.74 "Hg5 mi
Weather by CustomWeather, © 2014

See weather overviewHow to use our weather pages